Simultaneous Nadir Overpasses (SNOs) Predictions

Prediction of SNOs between AURA and NPP Satellite Orbit:

Table of predicted SNOs for the next 14.0 days since TLE Epoch: 12/6/2019
Index Date (AURA) Time (AURA) Lat,Lon (AURA) SZA (AURA ) Date (NPP) Time (NPP) Lat,Lon (NPP) SZA (NPP ) Distance(km) Time Diff (sec)
1 12/08/2019 19:08:32 -79.49, -30.39 65.61 12/08/2019 19:07:37 -79.50, -30.27 65.59 2.81 55
2 12/08/2019 19:57:53 79.68, 138.57 114.14 12/08/2019 19:58:16 79.68, 138.54 114.13 0.68 23
3 12/11/2019 11:25:01 -79.50, 85.52 65.32 12/11/2019 11:24:31 -79.49, 85.40 65.27 2.74 30
4 12/11/2019 12:14:20 79.76,-104.98 114.33 12/11/2019 12:15:07 79.76,-104.97 114.30 0.31 47
5 12/14/2019 03:41:27 -79.61,-157.79 65.23 12/14/2019 03:41:21 -79.61,-157.86 65.21 1.51 6
6 12/14/2019 04:30:46 79.86, 11.74 114.42 12/14/2019 04:31:57 79.87, 11.80 114.36 1.36 71
7 12/16/2019 19:08:34 79.41, 149.04 115.25 12/16/2019 19:07:35 79.40, 148.93 115.31 2.46 59
8 12/16/2019 19:57:54 -79.68, -41.39 65.13 12/16/2019 19:58:12 -79.69, -41.39 65.15 0.31 18
9 12/19/2019 11:24:59 79.52, -94.35 115.25 12/19/2019 11:24:24 79.52, -94.38 115.28 0.53 35




NCC Satellite Simultaneous Nadir Overpasses (SNOs) Prediction Service
